SUPERBIRD 8 (43271 NORAD) Tracking and Keplerian Element Data

This shows tracking and keplerian element data for the satellite.

Feedback or suggestion? Click here.




ElementValue
Catalog43271
NameSUPERBIRD 8
Epoch Orbit1136
Epoch Day130.90837633
Epoch Year2021
RAAN222.5893
Inclination0.0097
Eccentricity7.13E-05
Argument of Perigee221.5239
Mean Anonmoly273.8392
Mean Motion1.00272947
Decay Rate-8.7E-07
L11 43271U 18033A 21130.90837633 -.00000087 00000-0 00000-0 0 9994
L22 43271 0.0097 222.5893 0000713 221.5239 273.8392 1.00272947 11368

Live tracking and technical data element details for SUPERBIRD 8 (NORAD 43271). SUPERBIRD 8 can be tracked NOW for your location showing map with azimuth and elevation plus other details from your city location.

Track the satellite on the map from your city or location and see movement details for azimuth, elevation, latitude, longitude, range, height, and movement on the map or in text.







IsCatalogInMostPopularTable: catalog: 43271, numindb: 1682
Update: records affected: 1



GetName: 43271 SUPERBIRD 8

Hit Count: updated at: Tue, 11 May 2021 19:19:29 GMT